[[{"header":{"parameterUnit":"m.s-1","parameterCategory":1,"la1":30.2991,"la2":30.254,"lo1":-89.0895,"lo2":-89.0444,"dy":0.0017,"dx":0.0017,"nx":28,"ny":28,"refTime":"2024-07-22T09:00:00:Z","depth":0,"parameterNumber":2,"parameterNumberName":"U-component_of_WINDS"},"data":[0,0,0,0,0,0,0,0,0,0,0,0,0,0,0,0,0,0,0,0,0,0,0,0,0,0,0,0,0,0,0,0,0,0,0,0,0,0,0,0,0,0,0,0,0,0,0,0,0,0,0,0,0,0,0,0,0,0,2.1162,2.1163,0,2.1246,2.1247,2.1248,2.1256,2.1256,2.1255,2.1254,2.1341,2.1344,2.1348,0,0,0,0,0,0,0,0,0,0,0,0,0,2.1009,2.1012,2.1162,2.1163,2.1164,2.1246,2.1247,2.1249,2.1257,2.1256,2.1254,2.1253,2.134,2.1344,2.1348,0,0,0,0,0,0,0,0,0,0,0,0,0,2.1083,2.1013,2.1162,2.1178,2.118,2.1246,2.1247,2.1249,2.1257,2.1256,2.1254,2.1253,2.1339,2.1344,2.1348,2.1404,0,0,2.1363,2.1365,0,0,0,0,0,0,0,0,2.1078,2.1088,2.1174,2.1177,2.1179,2.1239,2.1226,2.1301,2.1257,2.1228,2.1254,2.1252,2.1309,2.1316,2.1335,2.1408,2.1412,2.1363,2.1366,2.1368,2.137,0,0,0,0,0,0,0,2.1073,2.1085,2.1195,2.1176,2.1179,2.1181,2.119,2.124,2.1275,2.123,2.1231,2.1241,2.131,2.133,2.1337,2.1413,2.1363,2.1367,2.137,2.1372,2.1539,2.154,0,0,0,0,0,0,2.1065,2.108,2.1193,2.1198,2.1125,2.1185,2.1195,2.1222,2.1274,2.1281,2.1242,2.1241,2.1323,2.1331,2.134,2.141,2.1368,2.1373,2.1375,2.1537,2.1539,2.1541,0,0,0,0,0,0,2.1062,2.1075,2.1189,2.1139,2.1154,2.1189,2.1219,2.1224,2.1244,2.1283,2.1289,2.1256,2.1322,2.1333,2.1388,2.1413,2.1375,2.1379,2.1535,2.1538,2.154,2.1549,0,0,0,0,0,0,2.1057,2.1074,2.1095,2.114,2.1157,2.1236,2.122,2.1227,2.1252,2.1252,2.1298,2.1304,2.1322,2.1381,2.1393,2.1419,2.1383,2.1533,2.1536,2.1539,2.1546,2.1551,2.1555,0,0,0,0,0,2.1052,2.1094,2.1096,2.1109,2.1184,2.1237,2.1247,2.1266,2.1254,2.1276,2.1301,2.1303,2.1408,2.1387,2.14,2.1427,2.1532,2.1535,2.1539,2.1545,2.155,2.1555,0,0,0,0,0,0,2.1051,2.11,2.1103,2.116,2.1195,2.1238,2.1267,2.1271,2.1309,2.1307,2.133,2.134,2.1395,2.1416,2.1392,2.1485,2.1469,2.1475,2.1469,2.1474,2.1479,2.1472,2.1387,0,0,0,0,0,2.1057,2.1096,2.1137,2.1184,2.1201,2.1231,2.1255,2.1267,2.1303,2.1318,2.1347,2.1382,2.1423,2.145,2.149,2.155,2.156,2.1575,2.1579,2.1583,2.1588,2.1622,2.163,2.1552,2.1552,2.1552,0,0,2.1071,2.1103,2.1126,2.1185,2.1213,2.1253,2.1243,2.1286,2.1316,2.1324,2.1378,2.1401,2.1442,2.15,2.1527,2.152,2.1612,2.1587,2.159,2.1593,2.1627,2.1634,2.1641,2.1555,2.1554,2.1554,0,0,2.1117,2.1145,2.1187,2.1216,2.1258,2.1278,2.1288,2.1332,2.1347,2.1401,2.1408,2.1445,2.1515,2.1545,2.1569,2.1627,2.1631,2.164,2.1662,2.1696,2.1702,2.1707,2.1729,2.1736,2.1645,2.1645,2.1645,0,2.1129,2.119,2.1209,2.1252,2.1278,2.1287,2.1331,2.1358,2.1411,2.1429,2.142,2.1509,2.1538,2.1603,2.1617,2.1636,2.165,2.1634,2.1699,2.1705,2.171,2.1731,2.1739,2.1646,2.1646,2.1645,2.1645,0,2.1203,2.1245,2.1275,2.1326,2.1356,2.1399,2.1425,2.1453,2.1462,2.1483,2.1539,2.1573,2.1621,2.1637,2.1647,2.1705,2.1699,2.1694,2.1679,2.1718,2.1738,2.1746,2.1647,2.1647,2.1646,2.1646,0,0,2.1251,2.1312,2.1323,2.1347,2.1395,2.1428,2.1472,2.1518,2.1542,2.1579,2.1617,2.1677,2.1673,2.17,2.1713,2.1742,2.1788,2.1735,2.1736,2.1744,2.1854,2.1858,2.1867,2.179,2.1792,2.1793,2.1851,0,2.1303,2.1381,2.14,2.1467,2.1507,2.1517,2.1555,2.1589,2.161,2.1647,2.167,2.1713,2.1704,2.1721,2.175,2.1776,2.181,2.1772,2.1826,2.1828,2.1816,2.1877,2.1881,2.1934,2.1859,2.186,2.1861,0,2.1374,2.1412,2.1483,2.1527,2.1544,2.1579,2.1623,2.1659,2.1698,2.1711,2.1742,2.1752,2.1799,2.1781,2.1847,2.182,2.1844,2.186,2.1862,2.1868,2.1847,2.1885,2.1951,2.1959,2.1874,2.1873,2.1872,0,2.1402,2.1472,2.1524,2.1544,2.1596,2.162,2.1642,2.168,2.1707,2.1746,2.1764,2.1808,2.1833,2.1867,2.1889,2.1873,2.1953,2.1937,2.1966,2.1966,2.1983,2.1981,2.2054,2.1997,2.1997,2.1997,2.1997,0,2.1458,2.1502,2.1537,2.1569,2.1619,2.164,2.1689,2.1712,2.1745,2.1783,2.1793,2.1828,2.1855,2.1894,2.1912,2.1964,2.1975,2.1987,2.1991,2.1986,2.1985,2.2002,2.1999,2.1999,2.1998,2.1998,2.1998,0,2.1499,2.1524,2.1581,2.1626,2.1638,2.1673,2.1711,2.1743,2.1764,2.1811,2.1824,2.1857,2.1903,2.1929,2.1987,2.1999,2.2057,2.2059,2.2044,2.2046,2.2074,2.2071,2.2161,2.2174,2.2108,2.2108,2.2109,0,2.1533,2.1567,2.1615,2.1641,2.1664,2.1705,2.1733,2.1756,2.1784,2.1832,2.1858,2.1905,2.1944,2.2017,2.2047,2.2092,2.2095,2.2124,2.2102,2.2096,2.2097,2.2094,2.2098,2.2127,2.2128,2.2128,2.2129,0,2.1592,2.1603,2.1642,2.1687,2.172,2.1755,2.1791,2.1812,2.1841,2.1872,2.192,2.195,2.2009,2.2056,2.2103,2.2127,2.2133,2.2135,2.2145,2.214,2.213,2.2137,2.2055,2.2133,2.2133,2.2133,2.2132,2.2132,2.1631,2.1662,2.1701,2.1745,2.1774,2.1807,2.184,2.1865,2.1905,2.1955,2.1966,2.2016,2.2055,2.2119,2.2145,2.2185,2.2179,2.2193,2.2196,2.2199,2.2201,2.2123,2.2193,2.2193,2.2193,2.2193,2.2193,0,2.1691,2.1717,2.1757,2.1806,2.1841,2.1844,2.1884,2.1913,2.1957,2.1992,2.203,2.2085,2.2131,2.2164,2.2211,2.2237,2.2241,2.2248,2.2247,2.2252,2.2202,2.219,2.2244,2.2244,2.2244,2.2244,2.2244,2.2244,2.1726,2.1779,2.1794,2.1862,2.1888,2.1937,2.1959,2.199,2.2019,2.208,2.2118,2.2139,2.2175,2.2224,2.2266,2.2275,2.2292,2.2299,2.2308,2.2261,2.2256,2.225,2.2239,2.2302,2.2303,2.2355,2.2355,2.2356]},{"header":{"parameterUnit":"m.s-1","parameterCategory":1,"la1":30.2991,"la2":30.254,"lo1":-89.0895,"lo2":-89.0444,"dy":0.0017,"dx":0.0017,"nx":28,"ny":28,"refTime":"2024-07-22T09:00:00:Z","depth":0,"parameterNumber":3,"parameterNumberName":"V-component_of_WINDS"},"data":[0,0,0,0,0,0,0,0,0,0,0,0,0,0,0,0,0,0,0,0,0,0,0,0,0,0,0,0,0,0,0,0,0,0,0,0,0,0,0,0,0,0,0,0,0,0,0,0,0,0,0,0,0,0,0,0,0,0,-0.0635,-0.0634,0,-0.0505,-0.0503,-0.0502,-0.0449,-0.0449,-0.045,-0.045,-0.0309,-0.0305,-0.0301,0,0,0,0,0,0,0,0,0,0,0,0,0,-0.0832,-0.0829,-0.0635,-0.0633,-0.0632,-0.0505,-0.0503,-0.0501,-0.0449,-0.0449,-0.045,-0.045,-0.0311,-0.0306,-0.0301,0,0,0,0,0,0,0,0,0,0,0,0,0,-0.0729,-0.0828,-0.0635,-0.059,-0.0585,-0.0505,-0.0503,-0.0501,-0.0449,-0.0449,-0.045,-0.045,-0.0312,-0.0306,-0.03,-0.0253,0,0,-0.0282,-0.0279,0,0,0,0,0,0,0,0,-0.0735,-0.0721,-0.0599,-0.0593,-0.0587,-0.0494,-0.0521,-0.0418,-0.0449,-0.05,-0.045,-0.045,-0.037,-0.0359,-0.0333,-0.0247,-0.0241,-0.0281,-0.0278,-0.0275,-0.0273,0,0,0,0,0,0,0,-0.0742,-0.0727,-0.0583,-0.0597,-0.059,-0.0575,-0.0561,-0.0501,-0.0434,-0.0496,-0.0492,-0.0478,-0.0367,-0.0339,-0.033,-0.0239,-0.0281,-0.0276,-0.0272,-0.027,-0.0108,-0.0107,0,0,0,0,0,0,-0.0757,-0.0733,-0.0587,-0.0579,-0.0664,-0.0571,-0.0555,-0.0523,-0.0434,-0.0421,-0.0477,-0.0476,-0.0349,-0.0337,-0.0324,-0.0264,-0.0275,-0.0269,-0.0266,-0.0108,-0.0108,-0.0107,0,0,0,0,0,0,-0.0762,-0.0745,-0.0593,-0.0655,-0.0635,-0.0567,-0.0532,-0.052,-0.0493,-0.042,-0.0407,-0.0462,-0.0349,-0.0333,-0.0272,-0.0258,-0.0267,-0.0261,-0.0109,-0.0108,-0.0107,-0.0143,0,0,0,0,0,0,-0.0768,-0.0747,-0.0729,-0.0655,-0.0632,-0.0544,-0.0531,-0.0517,-0.0484,-0.048,-0.0403,-0.039,-0.0348,-0.0282,-0.0266,-0.025,-0.0256,-0.011,-0.0109,-0.0108,-0.0143,-0.0143,-0.0144,0,0,0,0,0,-0.0775,-0.0743,-0.0729,-0.0712,-0.0609,-0.0544,-0.053,-0.0485,-0.0483,-0.0464,-0.0418,-0.0393,-0.0263,-0.0276,-0.0258,-0.024,-0.0111,-0.0109,-0.0108,-0.0142,-0.0143,-0.0144,0,0,0,0,0,0,-0.0814,-0.0732,-0.0716,-0.0659,-0.0609,-0.0535,-0.051,-0.0487,-0.0434,-0.0433,-0.0377,-0.036,-0.0304,-0.0265,-0.0281,-0.019,-0.0185,-0.018,-0.0217,-0.0217,-0.0218,-0.0228,-0.0251,0,0,0,0,0,-0.0817,-0.0773,-0.0703,-0.0659,-0.0635,-0.0577,-0.0547,-0.0517,-0.0462,-0.044,-0.0389,-0.0334,-0.0281,-0.0247,-0.0194,-0.0137,-0.0119,-0.0116,-0.0117,-0.0118,-0.0114,-0.0081,-0.0079,-0.0102,-0.0102,-0.0102,0,0,-0.082,-0.077,-0.0745,-0.0666,-0.0624,-0.0578,-0.0559,-0.0511,-0.0476,-0.0431,-0.0372,-0.0333,-0.0268,-0.021,-0.0181,-0.0176,-0.0104,-0.0116,-0.0117,-0.0112,-0.0079,-0.0077,-0.0075,-0.0101,-0.0101,-0.0101,0,0,-0.0804,-0.0762,-0.0722,-0.0681,-0.0618,-0.058,-0.0571,-0.05,-0.0474,-0.0414,-0.0379,-0.0336,-0.0246,-0.0202,-0.0167,-0.0137,-0.0112,-0.0121,-0.0124,-0.0093,-0.0091,-0.0089,-0.0078,-0.0075,-0.0117,-0.0118,-0.0118,0,-0.0815,-0.0747,-0.0703,-0.0658,-0.0624,-0.0585,-0.0543,-0.0504,-0.0427,-0.0403,-0.04,-0.0287,-0.0241,-0.0172,-0.0165,-0.0138,-0.0125,-0.0129,-0.0095,-0.0093,-0.009,-0.0079,-0.0075,-0.0119,-0.0119,-0.0119,-0.0119,0,-0.0765,-0.0718,-0.0693,-0.0623,-0.0586,-0.0542,-0.049,-0.0458,-0.0432,-0.0394,-0.0333,-0.0277,-0.0212,-0.0194,-0.0166,-0.0121,-0.012,-0.0107,-0.0099,-0.0091,-0.0079,-0.0075,-0.0121,-0.0121,-0.012,-0.012,0,0,-0.0767,-0.0676,-0.0667,-0.0635,-0.0564,-0.0526,-0.0481,-0.0421,-0.0394,-0.0342,-0.0302,-0.0228,-0.0216,-0.0178,-0.0145,-0.0118,-0.0098,-0.0108,-0.0105,-0.0108,-0.0044,-0.0055,-0.0051,-0.0082,-0.0081,-0.008,-0.005,0,-0.0741,-0.0661,-0.0621,-0.0557,-0.0514,-0.0477,-0.0437,-0.0389,-0.0353,-0.0308,-0.0267,-0.0216,-0.0204,-0.0181,-0.0152,-0.0107,-0.0084,-0.0108,-0.0042,-0.004,-0.0059,-0.0045,-0.0055,-0.0029,-0.0045,-0.0044,-0.0044,0,-0.0699,-0.0651,-0.0585,-0.0521,-0.0501,-0.0466,-0.0409,-0.0368,-0.0312,-0.0287,-0.0246,-0.0215,-0.0164,-0.0162,-0.0091,-0.0109,-0.0079,-0.0053,-0.0051,-0.0042,-0.0041,-0.0035,-0.002,-0.0016,-0.0036,-0.0037,-0.0037,0,-0.0708,-0.0626,-0.0576,-0.055,-0.0474,-0.0451,-0.0418,-0.0363,-0.033,-0.0279,-0.0257,-0.02,-0.0168,-0.0124,-0.0078,-0.0081,-0.0011,-0.0005,0.0012,0.0011,0.0026,0.0024,0.0047,0.0043,0.0043,0.0043,0.0043,0,-0.0682,-0.0643,-0.0579,-0.0548,-0.0503,-0.0457,-0.0413,-0.0376,-0.0328,-0.0288,-0.0252,-0.0215,-0.0157,-0.0112,-0.0075,-0.0022,-0.0008,0.0015,0.0024,0.0012,0.0009,0.0032,0.0032,0.0044,0.0044,0.0044,0.0044,0,-0.0684,-0.064,-0.0583,-0.0517,-0.05,-0.0469,-0.0411,-0.0379,-0.0342,-0.0292,-0.0278,-0.0219,-0.0164,-0.0115,-0.0041,-0.0017,0.0037,0.0049,0.0017,0.0023,0.0037,0.0035,0.0076,0.0084,0.0074,0.0074,0.0074,0,-0.067,-0.0639,-0.0572,-0.0544,-0.0512,-0.0467,-0.0435,-0.0389,-0.0355,-0.0291,-0.0266,-0.021,-0.0162,-0.0077,-0.0026,0.003,0.0044,0.0054,0.0053,0.0039,0.0044,0.0042,0.0046,0.0054,0.0054,0.0054,0.0053,0,-0.0651,-0.0631,-0.0587,-0.0535,-0.0498,-0.0454,-0.0409,-0.0387,-0.0332,-0.0297,-0.0243,-0.0206,-0.0133,-0.0077,-0.0016,0.0021,0.0047,0.0053,0.006,0.0048,0.0029,0.0039,0.0016,0.0052,0.0052,0.0053,0.0053,0.0053,-0.0643,-0.0615,-0.0564,-0.0515,-0.0478,-0.0437,-0.0404,-0.0365,-0.0319,-0.0258,-0.0233,-0.0178,-0.0123,-0.0039,-0.0003,0.0042,0.0048,0.0058,0.0061,0.0062,0.006,0.002,0.0054,0.0054,0.0054,0.0054,0.0054,0,-0.0622,-0.0588,-0.0545,-0.0484,-0.0447,-0.0429,-0.0378,-0.0347,-0.03,-0.0253,-0.0208,-0.0146,-0.0092,-0.0038,0.0019,0.0044,0.0058,0.0058,0.0057,0.0065,0.0052,0.004,0.0046,0.0046,0.0046,0.0046,0.0046,0.0046,-0.0607,-0.0558,-0.0533,-0.0465,-0.043,-0.0378,-0.0351,-0.0313,-0.0275,-0.0208,-0.0165,-0.0131,-0.0081,-0.002,0.003,0.0045,0.0064,0.0061,0.0079,0.0066,0.0066,0.0066,0.0056,0.0065,0.0065,0.0089,0.0089,0.0089]}]]